When you browse on this site, cookies collect data to enhance your experience and personalize the content and advertising you see.
Visit our Privacy Policy to learn more. By continuing to use the site, you agree to this use of cookies and data.
  • In Hungary
  • List of Countries
  • For 7 days
  • Water Temperature
  • Satellite Maps
  • Weather Map
  • News
  • Weather Widgets
  • user-avatar
    Login

    Hourly Weather Don Benito

    Today, 27 June, Thursday

    Time Temperature Precipitation Wind Pressure Humidity
    00:00 +21°C° 0 mm 2 mps 738 mmHg 62%
    01:00 +20°C° 0 mm 2 mps 738 mmHg 67%
    02:00 +20°C° 0 mm 1 mps 737 mmHg 73%
    03:00 +19°C° 0 mm 1 mps 737 mmHg 78%
    04:00 +19°C° 0 mm 1 mps 737 mmHg 79%
    05:00 +20°C° 0 mm 1 mps 737 mmHg 79%
    06:00 +18°C° 0 mm 0 mps 737 mmHg 80%
    07:00 +22°C° 0 mm 1 mps 738 mmHg 70%
    08:00 +25°C° 0 mm 1 mps 738 mmHg 59%
    09:00 +28°C° 0 mm 1 mps 738 mmHg 48%
    10:00 +30°C° 0 mm 2 mps 738 mmHg 42%
    11:00 +34°C° 0 mm 2 mps 738 mmHg 35%
    12:00 +36°C° 0 mm 2 mps 737 mmHg 29%
    13:00 +38°C° 0 mm 3 mps 737 mmHg 26%
    14:00 +40°C° 0 mm 4 mps 737 mmHg 24%
    15:00 +41°C° 0 mm 4 mps 736 mmHg 21%
    16:00 +40°C° 0 mm 5 mps 736 mmHg 23%
    17:00 +39°C° 0 mm 5 mps 736 mmHg 25%
    18:00 +38°C° 0 mm 6 mps 735 mmHg 26%
    19:00 +34°C° 0 mm 5 mps 736 mmHg 28%
    20:00 +30°C° 0 mm 4 mps 736 mmHg 30%
    21:00 +27°C° 0 mm 3 mps 737 mmHg 32%
    22:00 +25°C° 0 mm 2 mps 737 mmHg 35%
    23:00 +24°C° 0 mm 2 mps 737 mmHg 38%

    Tomorrow, 28 June, Friday

    Time Temperature Precipitation Wind Pressure Humidity
    00:00 +21°C° 0 mm 2 mps 738 mmHg 41%
    01:00 +21°C° 0 mm 1 mps 737 mmHg 47%
    02:00 +20°C° 0 mm 1 mps 737 mmHg 54%
    03:00 +19°C° 0 mm 1 mps 737 mmHg 60%
    04:00 +19°C° 0 mm 1 mps 737 mmHg 61%
    05:00 +20°C° 0 mm 1 mps 737 mmHg 62%
    06:00 +20°C° 0 mm 1 mps 737 mmHg 63%
    07:00 +23°C° 0 mm 1 mps 737 mmHg 52%
    08:00 +27°C° 0 mm 1 mps 737 mmHg 42%
    09:00 +30°C° 0 mm 1 mps 737 mmHg 31%
    10:00 +33°C° 0 mm 1 mps 737 mmHg 27%
    11:00 +36°C° 0 mm 1 mps 737 mmHg 23%
    12:00 +40°C° 0 mm 1 mps 736 mmHg 19%
    13:00 +41°C° 0 mm 1 mps 736 mmHg 17%
    14:00 +42°C° 0 mm 2 mps 735 mmHg 15%
    15:00 +44°C° 0 mm 3 mps 735 mmHg 13%
    16:00 +43°C° 0 mm 3 mps 734 mmHg 14%
    17:00 +43°C° 0 mm 4 mps 734 mmHg 14%
    18:00 +43°C° 0 mm 4 mps 734 mmHg 14%
    19:00 +38°C° 0 mm 3 mps 734 mmHg 19%
    20:00 +35°C° 0 mm 3 mps 735 mmHg 24%
    21:00 +30°C° 0 mm 2 mps 735 mmHg 29%
    22:00 +28°C° 0 mm 2 mps 735 mmHg 35%
    23:00 +26°C° 0 mm 2 mps 735 mmHg 42%

    Day after tomorrow, 29 June, Saturday

    Time Temperature Precipitation Wind Pressure Humidity
    00:00 +24°C° 0 mm 2 mps 736 mmHg 48%
    01:00 +23°C° 0 mm 2 mps 736 mmHg 52%
    02:00 +21°C° 0 mm 2 mps 736 mmHg 56%
    03:00 +21°C° 0 mm 1 mps 736 mmHg 60%
    04:00 +21°C° 0 mm 1 mps 736 mmHg 59%
    05:00 +19°C° 0 mm 0 mps 736 mmHg 58%
    06:00 +20°C° 0 mm 0 mps 736 mmHg 57%
    07:00 +23°C° 0 mm 0 mps 736 mmHg 48%
    08:00 +26°C° 0 mm 0 mps 737 mmHg 40%
    09:00 +30°C° 0 mm 0 mps 737 mmHg 31%
    10:00 +34°C° 0 mm 1 mps 737 mmHg 26%
    11:00 +37°C° 0 mm 1 mps 736 mmHg 21%
    12:00 +41°C° 0 mm 1 mps 736 mmHg 16%
    13:00 +42°C° 0 mm 1 mps 736 mmHg 14%
    14:00 +43°C° 0 mm 1 mps 735 mmHg 12%
    15:00 +46°C° 0 mm 2 mps 735 mmHg 11%
    16:00 +45°C° 0 mm 3 mps 735 mmHg 11%
    17:00 +45°C° 0 mm 4 mps 734 mmHg 11%
    18:00 +45°C° 0 mm 5 mps 734 mmHg 12%
    19:00 +40°C° 0 mm 4 mps 734 mmHg 16%
    20:00 +36°C° 0 mm 3 mps 735 mmHg 21%
    21:00 +32°C° 0 mm 2 mps 735 mmHg 26%
    22:00 +30°C° 0 mm 2 mps 735 mmHg 32%
    23:00 +28°C° 0 mm 2 mps 736 mmHg 38%

    30 June, Sunday

    Time Temperature Precipitation Wind Pressure Humidity
    00:00 +26°C° 0 mm 2 mps 736 mmHg 44%
    01:00 +25°C° 0 mm 2 mps 736 mmHg 47%
    02:00 +24°C° 0 mm 2 mps 736 mmHg 51%
    03:00 +23°C° 0 mm 2 mps 736 mmHg 55%
    04:00 +23°C° 0 mm 1 mps 736 mmHg 55%
    05:00 +23°C° 0 mm 1 mps 737 mmHg 55%
    06:00 +21°C° 0 mm 0 mps 737 mmHg 55%
    07:00 +24°C° 0 mm 0 mps 737 mmHg 45%
    08:00 +28°C° 0 mm 0 mps 738 mmHg 36%
    09:00 +33°C° 0 mm 1 mps 738 mmHg 27%
    10:00 +35°C° 0 mm 1 mps 738 mmHg 22%
    11:00 +39°C° 0 mm 1 mps 738 mmHg 18%
    12:00 +41°C° 0 mm 2 mps 738 mmHg 13%
    13:00 +43°C° 0 mm 3 mps 737 mmHg 13%
    14:00 +44°C° 0 mm 3 mps 737 mmHg 12%
    15:00 +44°C° 0 mm 4 mps 736 mmHg 12%
    16:00 +44°C° 0 mm 4 mps 736 mmHg 13%
    17:00 +43°C° 0 mm 5 mps 736 mmHg 15%
    18:00 +42°C° 0 mm 5 mps 736 mmHg 17%
    19:00 +39°C° 0 mm 5 mps 737 mmHg 23%
    20:00 +34°C° 0 mm 4 mps 737 mmHg 29%
    21:00 +30°C° 0 mm 4 mps 737 mmHg 35%
    22:00 +28°C° 0 mm 3 mps 737 mmHg 43%
    23:00 +26°C° 0 mm 3 mps 738 mmHg 50%

    1 July, Monday

    Time Temperature Precipitation Wind Pressure Humidity
    00:00 +24°C° 0 mm 2 mps 738 mmHg 57%
    01:00 +23°C° 0 mm 2 mps 738 mmHg 60%
    02:00 +21°C° 0 mm 2 mps 737 mmHg 63%
    03:00 +20°C° 0 mm 2 mps 737 mmHg 66%
    04:00 +21°C° 0 mm 1 mps 738 mmHg 66%
    05:00 +21°C° 0 mm 1 mps 738 mmHg 66%
    06:00 +20°C° 0 mm 1 mps 738 mmHg 66%
    07:00 +24°C° 0 mm 1 mps 738 mmHg 55%
    08:00 +27°C° 0 mm 1 mps 738 mmHg 44%
    09:00 +30°C° 0 mm 1 mps 738 mmHg 33%
    10:00 +32°C° 0 mm 2 mps 738 mmHg 29%
    11:00 +35°C° 0 mm 2 mps 738 mmHg 24%
    12:00 +38°C° 0 mm 3 mps 737 mmHg 20%
    13:00 +39°C° 0 mm 3 mps 737 mmHg 19%
    14:00 +40°C° 0 mm 3 mps 736 mmHg 18%
    15:00 +41°C° 0 mm 4 mps 736 mmHg 17%
    16:00 +41°C° 0 mm 4 mps 736 mmHg 17%
    17:00 +40°C° 0 mm 5 mps 735 mmHg 17%
    18:00 +40°C° 0 mm 5 mps 735 mmHg 18%
    19:00 +36°C° 0 mm 5 mps 735 mmHg 21%
    20:00 +33°C° 0 mm 4 mps 736 mmHg 24%
    21:00 +29°C° 0 mm 4 mps 736 mmHg 27%
    22:00 +27°C° 0 mm 3 mps 736 mmHg 38%
    23:00 +25°C° 0 mm 3 mps 736 mmHg 49%

    2 July, Tuesday

    Time Temperature Precipitation Wind Pressure Humidity
    00:00 +21°C° 0 mm 2 mps 736 mmHg 60%
    01:00 +20°C° 0 mm 2 mps 736 mmHg 63%
    02:00 +20°C° 0 mm 2 mps 736 mmHg 66%
    03:00 +19°C° 0 mm 2 mps 735 mmHg 69%
    04:00 +20°C° 0 mm 1 mps 736 mmHg 68%
    05:00 +20°C° 0 mm 1 mps 736 mmHg 68%
    06:00 +20°C° 0 mm 1 mps 736 mmHg 67%
    07:00 +23°C° 0 mm 1 mps 736 mmHg 56%
    08:00 +26°C° 0 mm 1 mps 736 mmHg 44%
    09:00 +29°C° 0 mm 1 mps 736 mmHg 32%
    10:00 +32°C° 0 mm 2 mps 736 mmHg 27%
    11:00 +35°C° 0 mm 2 mps 736 mmHg 22%
    12:00 +37°C° 0 mm 3 mps 736 mmHg 17%
    13:00 +38°C° 0 mm 3 mps 735 mmHg 16%
    14:00 +39°C° 0 mm 3 mps 734 mmHg 15%
    15:00 +40°C° 0 mm 3 mps 734 mmHg 14%
    16:00 +40°C° 0 mm 3 mps 734 mmHg 14%
    17:00 +40°C° 0 mm 4 mps 733 mmHg 15%
    18:00 +40°C° 0 mm 5 mps 733 mmHg 15%
    19:00 +36°C° 0 mm 4 mps 733 mmHg 19%
    20:00 +33°C° 0 mm 3 mps 734 mmHg 22%
    21:00 +29°C° 0 mm 3 mps 734 mmHg 26%
    22:00 +27°C° 0 mm 3 mps 734 mmHg 31%
    23:00 +25°C° 0 mm 2 mps 734 mmHg 36%
    Show more